Weather History for Montevideo, MN

Change the Weather History Date:

Sunday, August 4, 2013

  Actual Average Record
Temperature  
Mean Temperature 63 °F -  
Max Temperature 75 °F 83 °F 99 °F (1976)
Min Temperature 51 °F 58 °F 42 °F (1971)
Degree Days  
Heating Degree Days 2    
Growing Degree Days 13 (Base 50)    
Moisture  
Dew Point 55 °F    
Average Humidity 77    
Maximum Humidity 100    
Minimum Humidity 50    
Precipitation  
Precipitation 0.00 in - - ()
Sea Level Pressure  
Sea Level Pressure 30.15 in    
Wind  
Wind Speed 5 mph (SSE)    
Max Wind Speed 10 mph    
Max Gust Speed -    
Visibility 10 miles    
Events Rain , Thunderstorm    
Averages and records for this station are not official NWS values.
T = Trace of Precipitation, MM = Missing Value Source: NWS Daily Summary

Daily Weather History Graph

Daily Weather History Graph

Search for Another Location

Airport:

Trip Planner

Search our weather history database for the weather conditions in past years. The results will help you decide how hot, cold, wet, or windy it might be!

Date:

Astronomy

Aug. 04, 2013 Rise Set
Actual Time 6:12 AM CDT 8:45 PM CDT
Civil Twilight 5:38 AM CDT 9:18 PM CDT
Nautical Twilight 4:56 AM CDT 9:59 PM CDT
Astronomical Twilight 4:09 AM CDT 10:46 PM CDT
Moon 4:12 AM CDT (8/4) 7:08 PM CDT (8/4)
Length of Visible Light 15h 39m
Length of Day
14h 32m
Waning Crescent, 4% of the Moon is Illuminated
Aug 4
Waning Crescent
Aug 6
New
Aug 14
First Quarter
Aug 20
Full
Aug 28
Last Quarter

Hourly Weather History & Observations

Time (CDT) Temp. Dew Point Humidity Pressure Visibility Wind Dir Wind Speed Gust Speed Precip Events Conditions
12:14 AM 57.2 °F 51.8 °F 82% 30.24 in 10.0 mi ENE 5.8 mph - N/A   Clear
12:34 AM 57.2 °F 51.8 °F 82% 30.25 in 10.0 mi ENE 4.6 mph - N/A   Clear
12:54 AM 57.2 °F 51.8 °F 82% 30.26 in 10.0 mi ENE 3.5 mph - N/A   Clear
1:14 AM 57.2 °F 51.8 °F 82% 30.26 in 10.0 mi East 5.8 mph - N/A   Clear
1:34 AM 55.4 °F 51.8 °F 88% 30.26 in 10.0 mi East 5.8 mph - N/A   Clear
1:54 AM 55.4 °F 50.0 °F 82% 30.25 in 10.0 mi East 6.9 mph - N/A   Clear
2:14 AM 55.4 °F 50.0 °F 82% 30.24 in 10.0 mi ESE 5.8 mph - N/A   Clear
2:34 AM 53.6 °F 50.0 °F 88% 30.23 in 10.0 mi East 5.8 mph - N/A   Clear
2:52 AM 53.6 °F 50.0 °F 88% 30.23 in 10.0 mi East 5.8 mph - N/A   Clear
3:14 AM 53.6 °F 50.0 °F 88% 30.22 in 10.0 mi ESE 4.6 mph - N/A   Clear
3:34 AM 53.6 °F 50.0 °F 88% 30.22 in 10.0 mi ESE 3.5 mph - N/A   Clear
3:54 AM 53.6 °F 50.0 °F 88% 30.22 in 10.0 mi SE 3.5 mph - N/A   Clear
4:14 AM 51.8 °F 50.0 °F 94% 30.22 in 10.0 mi Calm Calm - N/A   Clear
4:32 AM 51.8 °F 48.2 °F 88% 30.21 in 10.0 mi East 4.6 mph - N/A   Clear
4:54 AM 51.8 °F 50.0 °F 94% 30.21 in 10.0 mi ESE 3.5 mph - N/A   Clear
5:14 AM 51.8 °F 50.0 °F 94% 30.21 in 10.0 mi ESE 3.5 mph - N/A   Clear
5:34 AM 51.8 °F 50.0 °F 94% 30.20 in 10.0 mi ESE 3.5 mph - N/A   Clear
5:54 AM 51.8 °F 51.8 °F 100% 30.20 in 10.0 mi Calm Calm - N/A   Clear
6:14 AM 53.6 °F 51.8 °F 94% 30.22 in 10.0 mi Calm Calm - N/A   Clear
6:34 AM 53.6 °F 51.8 °F 94% 30.23 in 10.0 mi Calm Calm - N/A   Clear
6:54 AM 53.6 °F 51.8 °F 94% 30.23 in 10.0 mi Calm Calm - N/A   Clear
7:14 AM 53.6 °F 51.8 °F 94% 30.24 in 10.0 mi Calm Calm - N/A Thunderstorm Thunderstorm
7:34 AM 55.4 °F 53.6 °F 94% 30.24 in 10.0 mi Calm Calm - N/A   Clear
7:54 AM 55.4 °F 53.6 °F 94% 30.24 in 10.0 mi Calm Calm - N/A   Clear
8:14 AM 55.4 °F 53.6 °F 94% 30.25 in 10.0 mi Calm Calm - N/A   Drizzle
8:34 AM 55.4 °F 53.6 °F 94% 30.23 in 10.0 mi Calm Calm - N/A   Clear
8:53 AM 57.2 °F 55.4 °F 94% 30.20 in 10.0 mi SSE 6.9 mph - N/A   Drizzle
9:14 AM 57.2 °F 55.4 °F 94% 30.20 in 10.0 mi South 4.6 mph - N/A   Scattered Clouds
9:34 AM 59.0 °F 55.4 °F 88% 30.20 in 10.0 mi SSE 5.8 mph - N/A   Scattered Clouds
9:54 AM 59.0 °F 55.4 °F 88% 30.20 in 10.0 mi SSE 3.5 mph - N/A   Scattered Clouds
10:14 AM 60.8 °F 55.4 °F 82% 30.20 in 10.0 mi SSE 3.5 mph - N/A   Scattered Clouds
10:33 AM 60.8 °F 55.4 °F 82% 30.20 in 10.0 mi Calm Calm - N/A   Mostly Cloudy
10:54 AM 60.8 °F 55.4 °F 82% 30.20 in 10.0 mi South 3.5 mph - N/A   Mostly Cloudy
11:14 AM 60.8 °F 55.4 °F 82% 30.20 in 10.0 mi Calm Calm - N/A   Scattered Clouds
11:33 AM 62.6 °F 55.4 °F 77% 30.20 in 10.0 mi Calm Calm - N/A Rain Light Rain
11:54 AM 62.6 °F 55.4 °F 77% 30.19 in 10.0 mi Calm Calm - N/A   Light Drizzle
12:14 PM 62.6 °F 55.4 °F 77% 30.20 in 10.0 mi East 3.5 mph - N/A   Mostly Cloudy
12:33 PM 64.4 °F 57.2 °F 77% 30.19 in 10.0 mi East 4.6 mph - N/A   Overcast
12:54 PM 64.4 °F 55.4 °F 73% 30.18 in 10.0 mi East 4.6 mph - N/A   Mostly Cloudy
1:14 PM 66.2 °F 55.4 °F 68% 30.17 in 10.0 mi SE 4.6 mph - N/A   Scattered Clouds
1:33 PM 66.2 °F 57.2 °F 73% 30.17 in 10.0 mi ESE 5.8 mph - N/A   Scattered Clouds
1:54 PM 68.0 °F 57.2 °F 68% 30.17 in 10.0 mi SE 5.8 mph - N/A   Scattered Clouds
2:14 PM 68.0 °F 55.4 °F 64% 30.16 in 10.0 mi SSE 6.9 mph - N/A   Scattered Clouds
2:34 PM 69.8 °F 57.2 °F 64% 30.15 in 10.0 mi South 6.9 mph - N/A   Scattered Clouds
2:54 PM 69.8 °F 55.4 °F 60% 30.14 in 10.0 mi South 8.1 mph - N/A   Scattered Clouds
3:14 PM 73.4 °F 55.4 °F 53% 30.14 in 10.0 mi South 6.9 mph - N/A   Scattered Clouds
3:34 PM 73.4 °F 55.4 °F 53% 30.13 in 10.0 mi South 5.8 mph - N/A   Scattered Clouds
3:54 PM 73.4 °F 55.4 °F 53% 30.12 in 10.0 mi South 8.1 mph - N/A   Scattered Clouds
4:14 PM 75.2 °F 55.4 °F 50% 30.12 in 10.0 mi SSW 6.9 mph - N/A   Scattered Clouds
4:34 PM 75.2 °F 57.2 °F 53% 30.11 in 10.0 mi South 9.2 mph - N/A   Scattered Clouds
4:53 PM 75.2 °F 55.4 °F 50% 30.11 in 10.0 mi South 10.4 mph - N/A   Clear
5:14 PM 73.4 °F 53.6 °F 50% 30.10 in 10.0 mi South 5.8 mph - N/A   Clear
5:34 PM 73.4 °F 53.6 °F 50% 30.09 in 10.0 mi South 8.1 mph - N/A   Scattered Clouds
5:54 PM 73.4 °F 55.4 °F 53% 30.08 in 10.0 mi South 8.1 mph - N/A   Scattered Clouds
6:14 PM 73.4 °F 55.4 °F 53% 30.06 in 10.0 mi South 10.4 mph - N/A   Scattered Clouds
6:34 PM 73.4 °F 55.4 °F 53% 30.05 in 10.0 mi South 9.2 mph - N/A   Clear
6:54 PM 73.4 °F 57.2 °F 57% 30.05 in 10.0 mi South 8.1 mph - N/A   Clear
7:14 PM 71.6 °F 55.4 °F 57% 30.04 in 10.0 mi South 6.9 mph - N/A   Clear
7:34 PM 71.6 °F 57.2 °F 60% 30.04 in 10.0 mi South 3.5 mph - N/A   Clear
7:54 PM 69.8 °F 57.2 °F 64% 30.04 in 10.0 mi South 4.6 mph - N/A   Mostly Cloudy
8:14 PM 69.8 °F 59.0 °F 68% 30.03 in 10.0 mi SSE 4.6 mph - N/A   Overcast
8:34 PM 68.0 °F 60.8 °F 78% 30.02 in 10.0 mi South 6.9 mph - N/A   Mostly Cloudy
8:54 PM 68.0 °F 60.8 °F 78% 30.02 in 10.0 mi South 4.6 mph - N/A   Overcast
9:14 PM 68.0 °F 59.0 °F 73% 30.02 in 10.0 mi South 5.8 mph - N/A   Overcast
9:34 PM 66.2 °F 60.8 °F 83% 30.02 in 10.0 mi South 5.8 mph - N/A   Overcast
9:54 PM 66.2 °F 60.8 °F 83% 30.02 in 10.0 mi South 5.8 mph - N/A   Overcast
10:14 PM 66.2 °F 60.8 °F 83% 30.01 in 10.0 mi SSE 3.5 mph - N/A   Overcast
10:34 PM 66.2 °F 60.8 °F 83% 30.01 in 10.0 mi SSW 3.5 mph - N/A Thunderstorm Overcast
10:54 PM 66.2 °F 60.8 °F 83% 29.99 in 10.0 mi South 5.8 mph - N/A Thunderstorm Scattered Clouds
11:13 PM 66.2 °F 60.8 °F 83% 29.98 in 10.0 mi SW 8.1 mph - N/A   Scattered Clouds
11:34 PM 66.2 °F 60.8 °F 83% 29.97 in 10.0 mi SSW 9.2 mph - N/A Rain , Thunderstorm Light Thunderstorms and Rain
11:54 PM 66.2 °F 60.8 °F 83% 29.96 in 10.0 mi South 6.9 mph - N/A Thunderstorm Overcast